Location: Ceska republika
(50.0000°N, 15.0000°E)
Time: 02:24:31
(UTC+02:00)

ISS - Pass Details

Date: 12 October 2017
Orbit: 401 x 408 km, 51.6° (Epoch: 18 October)

Event Time Altitude Azimuth Distance (km) Brightness Sun altitude
Rises 19:22:00 0° 287° (WNW) 2,326 1.7 -11.6°
Reaches altitude 10° 19:24:08 10° 281° (W) 1,465 0.5 -11.9°
Maximum altitude 19:27:15 42° 209° (SSW) 591 -2.8 -12.4°
Enters shadow 19:29:50 14° 140° (SE) 1,250 -1.8 -12.8°
